Location: Bailleul
(50.3375°N, 2.8513°E)
Time: 04:48:09
(UTC+00:00)

Cosmos 1805 Rocket - Pass Details

Date: 19 April 2021
Orbit: 605 x 631 km, 82.5° (Epoch: 09 May)

Event Time Altitude Azimuth Distance (km) Brightness Sun altitude
Rises 22:22:09 0° 351° (N) 2,887 8.2 -25.4°
Reaches altitude 10° 22:24:24 10° 353° (N) 1,974 7.1 -25.5°
Enters shadow 22:28:09 61° 23° (NNE) 692 3.9 -25.8°
